(186010) = 2001 QR112

Discovered at Socorro on 2001-08-25 by LINEAR.

Orbit

Orbit type: Main Belt

Note: WebGL enabled browser required.

epoch2024-03-31.0
epoch JD2460400.5
perihelion date2022-03-07.59652
perihelion JD2459646.09652
argument of perihelion (°)116.14655
ascending node (°)224.10130
inclination (°)7.78243
eccentricity0.1816283
perihelion distance (AU)2.1017923
Tisserand w.r.t. Jupiter3.4
ΔV w.r.t. Earth (km/sec)9.4
semimajor axis (AU)2.5682611
mean anomaly (°)180.65449
mean daily motion (°/day)0.23946670
aphelion distance (AU)3.035
period (years)4.12
P-vector [x]0.93540932
P-vector [y]-0.35296937
P-vector [z]-0.02054333
Q-vector [x]0.34077676
Q-vector [y]0.88456232
Q-vector [z]0.31846617
absolute magnitude16.28
phase slope0.15
uncertainty0
referenceMPEC 2024-E23
observations used472
oppositions16
arc length (days)9620
first opposition used1997
last opposition used2024
residual rms (arc-secs)0.69
perturbers coarse indicatorM-v
perturbers precise indicator003Ek
first observation date used1997-10-30.0
last observation date used2024-03-02.0
computer nameMPCLINUX
JD of orbit computation2456612.632948
perihelion JD uncertainty (days)1.0190E-04
argument of perihelion uncertainty (°)4.6236E-05
ascending node uncertainty (°)4.3899E-05
inclination uncertainty (°)3.2618E-06
eccentricity uncertainty 1.7478E-07
perihelion distance uncertainty (AU)4.7560E-07
Minimum Orbit Intersection Distances (in AU)
for orbit epoch: 2460400.5, reference: E2024-G77
Mercury1.72067
Venus1.39208
Earth1.1077
Mars0.75663
Jupiter2.41896
Saturn6.24479
Uranus15.4371
Neptune27.3218

Observations

477 total observations over interval: 1997 10 30.16406 – 2024 03 02.255453
These data are available for download (format description).

Date (UT) J2000 RA J2000 Dec Magn Location Ref
1997 10 30.16406 00 49 10.80 +10 21 25.0   704 – Lincoln Laboratory ETS, New Mexico MPS 140977
1997 10 30.18159 00 49 10.47 +10 21 16.0   704 – Lincoln Laboratory ETS, New Mexico MPS 140977
1997 10 30.19887 00 49 09.86 +10 21 07.1   704 – Lincoln Laboratory ETS, New Mexico MPS 140977
1997 10 30.21624 00 49 09.23 +10 20 55.2   704 – Lincoln Laboratory ETS, New Mexico MPS 140977
1997 10 30.23506 00 49 08.61 +10 20 44.7   704 – Lincoln Laboratory ETS, New Mexico MPS 140977
2001 08 24.29842 23 49 33.58 +11 32 44.3 18.5 R 699 – Lowell Observatory-LONEOS MPS 34704
2001 08 24.33077 23 49 32.63 +11 32 39.4   699 – Lowell Observatory-LONEOS MPS 34704
2001 08 24.35827 23 49 31.79 +11 32 35.7   699 – Lowell Observatory-LONEOS MPS 34704
2001 08 24.38578 23 49 31.07 +11 32 31.5   699 – Lowell Observatory-LONEOS MPS 34704
2001 08 25.33395 23 49 05.68 +11 30 02.5 18.9   704 – Lincoln Laboratory ETS, New Mexico MPS 33656
2001 08 25.34706 23 49 05.30 +11 29 59.7 19.3   704 – Lincoln Laboratory ETS, New Mexico MPS 33656
2001 08 25.37272 23 49 04.54 +11 29 55.8 19.3   704 – Lincoln Laboratory ETS, New Mexico MPS 33656
2001 08 26.33444 23 48 37.34 +11 27 08.1 18.4   704 – Lincoln Laboratory ETS, New Mexico MPS 33656
2001 08 26.34737 23 48 36.93 +11 27 06.3 19.4   704 – Lincoln Laboratory ETS, New Mexico MPS 33656
2001 08 26.36030 23 48 36.52 +11 27 03.3 19.2   704 – Lincoln Laboratory ETS, New Mexico MPS 33656
2001 08 26.37320 23 48 36.11 +11 27 02.2 19.0   704 – Lincoln Laboratory ETS, New Mexico MPS 33656
2001 08 26.38612 23 48 35.74 +11 26 58.9 19.4   704 – Lincoln Laboratory ETS, New Mexico MPS 33656
2001 09 10.25254 23 39 25.68 +10 10 05.0 18.4   704 – Lincoln Laboratory ETS, New Mexico MPS 34704
2001 09 10.26679 23 39 25.05 +10 09 58.7 18.6   704 – Lincoln Laboratory ETS, New Mexico MPS 34704
2001 09 10.28069 23 39 24.42 +10 09 53.0 19.0   704 – Lincoln Laboratory ETS, New Mexico MPS 34704
2001 09 10.29461 23 39 23.77 +10 09 47.6 18.7   704 – Lincoln Laboratory ETS, New Mexico MPS 34704
2001 09 10.30854 23 39 23.11 +10 09 41.6 19.1   704 – Lincoln Laboratory ETS, New Mexico MPS 34704
2001 09 10.36269 23 39 20.65 +10 09 17.3 18.4 R 699 – Lowell Observatory-LONEOS MPS 34704
2001 09 10.39017 23 39 19.44 +10 09 06.0   699 – Lowell Observatory-LONEOS MPS 34704
2001 09 10.41769 23 39 18.15 +10 08 53.7   699 – Lowell Observatory-LONEOS MPS 34704
2001 09 10.44530 23 39 16.94 +10 08 42.8   699 – Lowell Observatory-LONEOS MPS 34704
2001 09 22.25577 23 30 41.05 +08 30 36.4 18.3   704 – Lincoln Laboratory ETS, New Mexico MPS 36021
2001 09 22.27081 23 30 40.41 +08 30 27.4 18.8   704 – Lincoln Laboratory ETS, New Mexico MPS 36021
2001 09 22.29935 23 30 39.12 +08 30 11.6 18.5   704 – Lincoln Laboratory ETS, New Mexico MPS 36021
2001 09 23.25041 23 29 58.98 +08 21 24.4 18.5   704 – Lincoln Laboratory ETS, New Mexico MPS 43660
2001 09 23.26553 23 29 58.27 +08 21 16.0 18.8   704 – Lincoln Laboratory ETS, New Mexico MPS 43660
2001 09 23.27972 23 29 57.74 +08 21 07.8 18.9   704 – Lincoln Laboratory ETS, New Mexico MPS 43660
2001 09 23.29516 23 29 57.00 +08 20 59.8 18.8   704 – Lincoln Laboratory ETS, New Mexico MPS 43660
2001 09 23.30937 23 29 56.43 +08 20 51.3 18.9   704 – Lincoln Laboratory ETS, New Mexico MPS 43660
2001 09 25.24801 23 28 36.57 +08 02 40.0 18.7   704 – Lincoln Laboratory ETS, New Mexico MPS 49373
2001 09 25.26301 23 28 35.87 +08 02 31.7 18.7   704 – Lincoln Laboratory ETS, New Mexico MPS 49373
2001 09 25.27802 23 28 35.24 +08 02 22.9 18.7   704 – Lincoln Laboratory ETS, New Mexico MPS 49373
2001 09 25.29303 23 28 34.58 +08 02 14.4 18.8   704 – Lincoln Laboratory ETS, New Mexico MPS 49373
2001 09 25.30802 23 28 33.95 +08 02 05.7 18.9   704 – Lincoln Laboratory ETS, New Mexico MPS 49373
2001 09 28.15364 23 26 42.30 +07 34 56.7 18.4   644 – Palomar Mountain/NEAT MPS 36021
2001 09 28.17476 23 26 41.43 +07 34 44.7 18.5   644 – Palomar Mountain/NEAT MPS 36021
2001 09 28.19722 23 26 40.56 +07 34 32.2 18.6   644 – Palomar Mountain/NEAT MPS 36021
2001 10 14.17059 23 19 08.38 +05 05 10.4 18.9   704 – Lincoln Laboratory ETS, New Mexico MPS 37797
2001 10 14.18631 23 19 08.07 +05 05 01.4 19.2   704 – Lincoln Laboratory ETS, New Mexico MPS 37797
2001 10 14.20203 23 19 07.75 +05 04 54.1 19.3   704 – Lincoln Laboratory ETS, New Mexico MPS 37797
2001 10 14.21779 23 19 07.46 +05 04 45.6 18.9   704 – Lincoln Laboratory ETS, New Mexico MPS 37797
2001 10 14.23355 23 19 07.17 +05 04 37.4 19.2   704 – Lincoln Laboratory ETS, New Mexico MPS 37797
2001 10 21.16693 23 17 54.27 +04 08 23.3 19.0   704 – Lincoln Laboratory ETS, New Mexico MPS 40293
2001 10 21.18314 23 17 54.21 +04 08 15.7 19.4   704 – Lincoln Laboratory ETS, New Mexico MPS 40293
2001 10 21.19921 23 17 54.06 +04 08 08.8 19.5   704 – Lincoln Laboratory ETS, New Mexico MPS 40293
2001 10 21.23239 23 17 53.85 +04 07 53.9 19.2   704 – Lincoln Laboratory ETS, New Mexico MPS 40293
2001 11 18.14387 23 27 02.80 +02 01 03.0 20.1   704 – Lincoln Laboratory ETS, New Mexico MPS 41882
2001 11 18.15868 23 27 03.43 +02 01 02.2 20.4   704 – Lincoln Laboratory ETS, New Mexico MPS 41882
2001 11 18.18822 23 27 04.72 +02 00 59.2 20.0   704 – Lincoln Laboratory ETS, New Mexico MPS 41882
2002 12 14.414100 08 38 31.413 +08 11 57.73 21.16 V 645 – Apache Point-Sloan Digital Sky Survey MPS 140977
2002 12 14.417572 08 38 31.324 +08 11 57.27 21.93   645 – Apache Point-Sloan Digital Sky Survey MPS 140977
2005 07 08.35981 22 19 48.74 +02 45 43.9 19.2 R 699 – Lowell Observatory-LONEOS MPS 140076
2005 07 08.38003 22 19 48.85 +02 45 51.3   699 – Lowell Observatory-LONEOS MPS 140076
2005 07 08.40028 22 19 48.88 +02 45 56.6   699 – Lowell Observatory-LONEOS MPS 140076
2005 07 08.42053 22 19 49.06 +02 46 04.9   699 – Lowell Observatory-LONEOS MPS 140076
2005 08 27.30399 21 57 06.57 +02 29 14.6 18.2 R 699 – Lowell Observatory-LONEOS MPS 140076
2005 08 27.32602 21 57 05.49 +02 29 05.8   699 – Lowell Observatory-LONEOS MPS 140076
2005 08 27.37005 21 57 03.43 +02 28 49.4   699 – Lowell Observatory-LONEOS MPS 140076
2005 08 29.81101 21 55 14.93 +02 12 34.3 18.4 R 113 – Volkssternwarte Drebach, Schoenbrunn MPS 140076
2005 08 29.81420 21 55 14.82 +02 12 32.7 18.6 R 113 – Volkssternwarte Drebach, Schoenbrunn MPS 140076
2005 08 29.81743 21 55 14.60 +02 12 32.0 18.2 R 113 – Volkssternwarte Drebach, Schoenbrunn MPS 140076
2005 08 29.82064 21 55 14.50 +02 12 30.4 18.4 R 113 – Volkssternwarte Drebach, Schoenbrunn MPS 140076
2005 08 29.82383 21 55 14.34 +02 12 29.0 18.6 R 113 – Volkssternwarte Drebach, Schoenbrunn MPS 140076
2005 08 29.85622 21 55 12.88 +02 12 17.4 18.5   160 – Castelmartini MPS 140076
2005 08 29.85906 21 55 12.80 +02 12 15.8 18.1   160 – Castelmartini MPS 140076
2005 08 29.86175 21 55 12.59 +02 12 14.4 18.9   160 – Castelmartini MPS 140076
2005 08 29.86459 21 55 12.52 +02 12 12.9 18.4   160 – Castelmartini MPS 140076
2005 08 29.86736 21 55 12.42 +02 12 12.4 18.6   160 – Castelmartini MPS 140076
2005 08 30.15032 21 55 00.15 +02 10 17.2 18.1 R 699 – Lowell Observatory-LONEOS MPS 140076
2005 08 30.16849 21 54 59.25 +02 10 09.0   699 – Lowell Observatory-LONEOS MPS 140076
2005 08 30.18663 21 54 58.38 +02 10 01.1   699 – Lowell Observatory-LONEOS MPS 140076
2005 08 31.24048 21 54 12.48 +02 02 41.7 18.2   704 – Lincoln Laboratory ETS, New Mexico MPS 140076
2005 08 31.25145 21 54 12.01 +02 02 36.5 18.5   704 – Lincoln Laboratory ETS, New Mexico MPS 140076
2005 08 31.26244 21 54 11.51 +02 02 32.4 18.7   704 – Lincoln Laboratory ETS, New Mexico MPS 140076
2005 09 09.227857 21 48 21.941 +00 55 10.65 18.77 V 645 – Apache Point-Sloan Digital Sky Survey MPS 390188
2005 09 09.231329 21 48 21.812 +00 55 09.04 19.54   645 – Apache Point-Sloan Digital Sky Survey MPS 390188
2005 09 10.204467 21 47 49.469 +00 47 30.52 18.87 V 645 – Apache Point-Sloan Digital Sky Survey MPS 390188
2005 09 10.207939 21 47 49.345 +00 47 28.88 19.69   645 – Apache Point-Sloan Digital Sky Survey MPS 390188
2005 09 11.13987 21 47 19.73 +00 40 08.5 18.4 R 699 – Lowell Observatory-LONEOS MPS 141613
2005 09 11.16179 21 47 18.95 +00 39 58.1   699 – Lowell Observatory-LONEOS MPS 141613
2005 09 11.18373 21 47 18.30 +00 39 47.6   699 – Lowell Observatory-LONEOS MPS 141613
